Location: Veyrier
(46.1830°N, 6.2000°E)
Time: 22:46:39
(UTC+02:00)

Daily predictions for brighter satellites

Satellite Brightness Start Highest point End
(mag) Time Altitude Azimuth Time Altitude Azimuth Time Altitude Azimuth
SPOT 1/Viking Rocket 4.2 21:59:39 10° SE 22:04:27 41° ENE 22:09:16 10° N
Cosmos 1151 Rocket 3.1 22:01:22 10° N 22:05:38 61° E 22:09:54 10° SSE
Cosmos 923 Rocket 4.1 22:00:45 10° NNW 22:05:59 73° ENE 22:11:09 10° SSE
Cosmos 405 3.2 22:03:02 10° N 22:06:40 62° ENE 22:10:15 10° SSE
Cosmos 2219 4.2 22:03:53 10° SSE 22:08:40 28° ESE 22:13:28 10° NE
S3M 4.4 22:03:19 10° NNW 22:09:23 66° W 22:15:25 10° S
YAOGAN 6 3.2 22:06:14 10° SE 22:09:41 41° ENE 22:13:07 10° N
PSLV R/B 3.2 22:07:32 10° SSE 22:10:35 67° ENE 22:13:39 10° N
CZ-4B R/B 4.2 22:07:19 10° NNE 22:12:13 37° E 22:17:01 10° SSE
Cosmos 2322 3.8 22:08:28 10° NNW 22:14:14 77° ENE 22:19:56 10° SSE
Cosmos 2237 Rocket 4.1 22:11:13 10° N 22:15:16 19° NE 22:19:18 10° E
AVUM R/B 2.9 22:14:30 10° S 22:16:42 41° ESE 22:19:08 10° NE
Cosmos 2322 Rocket 3.5 22:13:39 10° NW 22:18:47 37° WSW 22:23:53 10° S
Terra 3.3 22:20:46 10° ESE 22:24:28 23° ENE 22:28:12 10° NNE
Cosmos 1707 Rocket 4.2 22:21:21 10° N 22:25:26 39° ENE 22:29:25 11° SE
Cosmos 2058 3.7 22:21:48 10° SSE 22:25:31 34° E 22:29:15 10° NNE
Cosmos 773 Rocket 4.4 22:20:58 10° NNW 22:26:06 62° WSW 22:31:14 10° S
H-2A R/B 3.3 22:22:13 10° S 22:26:32 43° W 22:30:53 10° NNW
SL-16 R/B 3.6 22:23:33 10° NW 22:28:35 34° WSW 22:33:38 10° SSW
Cosmos 2360 Rocket 2.3 22:23:44 10° NNW 22:29:24 81° WSW 22:35:03 10° SSE
CZ-4 R/B 4.4 22:30:01 10° NNE 22:34:44 41° E 22:39:19 10° SSE
NOAA 11 4.4 22:29:28 10° SSE 22:34:48 60° ENE 22:40:12 10° N
SL-14 R/B 4.2 22:35:12 12° SSE 22:38:24 31° E 22:41:57 10° NNE
Cosmos 1271 Rocket 4.0 22:36:22 10° NNE 22:39:38 26° ENE 22:42:20 13° SE
Cosmos 1726 2.8 22:37:31 10° N 22:41:07 40° ENE 22:44:01 14° SE
ATLAS 2AS CENTAUR R/B 4.4 22:38:47 11° SE 22:42:12 15° E 22:46:07 10° ENE
Aureole 3 4.4 22:40:37 10° S 22:47:25 82° E 22:52:49 10° N
Cosmos 2227 Rocket 3.7 22:55:26 14° SE 22:57:53 19° E 23:01:41 10° ENE
ATLAS 3B R/B 4.1 22:53:13 10° NNW 22:59:38 33° NNE 23:05:41 10° E
Cosmos 2333 Rocket 3.0 22:57:13 10° NNW 23:02:39 41° NE 23:07:11 14° ESE
SPOT 5 4.2 22:59:00 10° SSW 23:03:06 33° W 23:07:26 10° NNW
Cosmos 2315 Rocket 4.3 22:58:25 10° NNW 23:04:36 68° W 23:10:44 10° S
Cosmos 2242 Rocket 3.7 23:01:29 10° N 23:05:55 61° ENE 23:09:05 19° SSE
NOSS 3-1 (C) 3.5 23:00:44 10° SSW 23:06:25 53° ESE 23:12:45 10° NE
SL-16 R/B 4.0 23:02:46 10° N 23:07:05 22° NE 23:11:22 10° E
SL-08 RB Rocket 3.8 23:08:11 15° S 23:11:54 71° WSW 23:16:24 10° NNW
Cosmos 2298 Rocket 4.1 23:07:04 10° S 23:12:18 61° ESE 23:17:33 10° NNE
COSMOS 2428 2.8 23:08:45 10° NNW 23:14:26 73° WSW 23:18:43 18° SSE
Meteor 1-4 Rocket 2.6 23:10:41 10° N 23:14:28 70° ENE 23:16:40 23° SSE
DELTA 2 DEB (DPAF) 4.2 23:11:44 17° SSE 23:15:08 84° WSW 23:19:40 10° NNW
USA 245 4.3 23:18:15 12° SSW 23:20:07 21° W 23:22:03 10° NW
Cosmos 1937 Rocket 3.8 23:18:02 17° S 23:21:44 46° ESE 23:26:41 10° NNE
Cosmos 1626 3.3 23:21:23 23° SE 23:22:41 28° E 23:25:56 10° NNE
Cosmos 1300 3.5 23:19:10 10° NNW 23:22:52 46° W 23:25:50 15° SSW
Cosmos 1862 Rocket 4.1 23:19:39 10° N 23:23:50 43° ENE 23:26:07 23° SE
Cosmos 2297 Rocket 3.5 23:23:22 18° SE 23:25:16 22° E 23:29:29 10° NE
CARTOSAT-1 3.5 23:25:46 22° SSE 23:28:30 90° NNE 23:32:51 10° NNW
BREEZE-M TANK 4.3 23:08:28 10° SW 23:31:12 60° SSE 23:35:51 10° E
H-2A R/B 2.2 23:27:40 20° SSE 23:31:30 83° WSW 23:36:58 10° NNW
Cosmos 2219 Rocket 2.2 23:26:20 10° NNW 23:31:58 82° ENE 23:35:33 23° SSE
Sich 1 3.3 23:29:07 13° SSW 23:33:02 71° W 23:37:27 10° N
Cosmos 1633 Rocket 3.2 23:29:54 14° SSW 23:33:37 74° W 23:38:01 10° N
Nadezhda 1 Rocket 3.9 23:28:32 10° N 23:34:38 75° E 23:38:45 22° SSE
Cosmos 990 Rocket 4.4 23:33:36 23° SSE 23:36:22 43° ESE 23:41:14 10° NNE
ARGOS 4.2 23:32:30 11° SSW 23:37:16 40° W 23:42:21 10° NNW
Cosmos 1869 3.6 23:39:31 10° N 23:43:30 56° ENE 23:45:12 31° SE
CZ-4C R/B 4.3 23:41:47 18° SSW 23:43:48 34° W 23:47:01 10° NNW
Cosmos 1455 2.1 23:42:04 10° N 23:45:51 73° E 23:47:23 34° SSE
Cosmos 1980 3.7 23:41:14 10° NNW 23:46:55 79° ENE 23:50:13 26° SSE
Cosmos 1745 Rocket 4.0 23:43:34 16° S 23:48:37 88° W 23:54:51 10° N
COSMOS 2455 3.6 23:43:08 10° NNW 23:48:56 45° NE 23:53:19 17° ESE
Lacrosse 4 Rocket 3.0 23:47:30 10° NNW 23:51:21 29° NE 23:54:15 15° E
Cosmos 2219 4.1 23:46:56 10° SW 23:52:32 51° WNW 23:58:09 10° NNE
